contact:dominique.lefevre@mio.osupytheas.fr, maurice.libes@osupytheas.fr, didier.mallarino@osupytheas.fr
Project:EMSO http://www.emso-fr.org/EMSO-France
Depth: 2436.0 m
Title:EMSO Ligure Ouest : Data MII capteur CSTAR
DateTime,Latitude,Longitude,Instrument_Serial,Reference_Counts,Signal_Counts,Corrected_Signal_raw_counts,Calculated_Beam_c_inverse_meters,Internal_thermistor_counts
DateTime,Latitude,Longitude,Instrument_Serial,Reference_Counts,Signal_Counts,Corrected_Signal_raw_counts,Calculated_Beam_c_inverse_meters,Internal_thermistor_counts
2019-08-01T00:01:12,42.805,6.029,CST-1368DR,8462,11835,15440,0.045,550
2019-08-01T00:04:13,42.805,6.029,CST-1368DR,8461,11836,15443,0.045,551
2019-08-01T00:07:15,42.805,6.029,CST-1368DR,8461,11835,15441,0.045,551
2019-08-01T00:10:16,42.805,6.029,CST-1368DR,8461,11810,15409,0.053,551
2019-08-01T00:13:18,42.805,6.029,CST-1368DR,8461,11835,15442,0.045,551
2019-08-01T00:16:20,42.805,6.029,CST-1368DR,8461,11831,15437,0.046,550
2019-08-01T00:19:21,42.805,6.029,CST-1368DR,8461,11825,15428,0.048,551
2019-08-01T00:22:23,42.805,6.029,CST-1368DR,8461,11837,15444,0.044,551
2019-08-01T00:25:25,42.805,6.029,CST-1368DR,8461,11837,15444,0.044,550
2019-08-01T00:28:26,42.805,6.029,CST-1368DR,8461,11836,15443,0.045,551
2019-08-01T00:31:28,42.805,6.029,CST-1368DR,8461,11836,15443,0.045,551
2019-08-01T00:34:30,42.805,6.029,CST-1368DR,8461,11835,15442,0.045,550
2019-08-01T00:37:31,42.805,6.029,CST-1368DR,8461,11838,15445,0.044,550
2019-08-01T00:40:33,42.805,6.029,CST-1368DR,8461,11837,15444,0.044,551
2019-08-01T00:43:35,42.805,6.029,CST-1368DR,8461,11837,15444,0.044,551
2019-08-01T00:46:37,42.805,6.029,CST-1368DR,8461,11836,15443,0.045,551
2019-08-01T00:49:38,42.805,6.029,CST-1368DR,8461,11833,15439,0.046,551
2019-08-01T00:52:40,42.805,6.029,CST-1368DR,8461,11837,15444,0.044,551
2019-08-01T00:55:42,42.805,6.029,CST-1368DR,8461,11836,15443,0.045,550
2019-08-01T00:58:43,42.805,6.029,CST-1368DR,8461,11836,15443,0.045,551
2019-08-01T01:01:45,42.805,6.029,CST-1368DR,8461,11837,15444,0.044,551
2019-08-01T01:04:47,42.805,6.029,CST-1368DR,8461,11835,15441,0.045,551
2019-08-01T01:07:48,42.805,6.029,CST-1368DR,8461,11834,15440,0.045,551
2019-08-01T01:10:50,42.805,6.029,CST-1368DR,8461,11835,15442,0.045,551
2019-08-01T01:13:51,42.805,6.029,CST-1368DR,8461,11833,15439,0.046,551
2019-08-01T01:16:53,42.805,6.029,CST-1368DR,8461,11836,15443,0.045,551
2019-08-01T01:19:55,42.805,6.029,CST-1368DR,8461,11836,15443,0.045,551
2019-08-01T01:22:56,42.805,6.029,CST-1368DR,8461,11835,15441,0.045,551
2019-08-01T01:25:58,42.805,6.029,CST-1368DR,8461,11836,15443,0.045,551
2019-08-01T01:29:00,42.805,6.029,CST-1368DR,8461,11834,15440,0.045,551
2019-08-01T01:32:01,42.805,6.029,CST-1368DR,8461,11833,15438,0.046,551
2019-08-01T01:35:03,42.805,6.029,CST-1368DR,8461,11834,15440,0.045,551
2019-08-01T01:38:05,42.805,6.029,CST-1368DR,8461,11834,15440,0.045,551
2019-08-01T01:41:07,42.805,6.029,CST-1368DR,8461,11833,15439,0.046,551
2019-08-01T01:44:09,42.805,6.029,CST-1368DR,8461,11834,15440,0.045,551
2019-08-01T01:47:10,42.805,6.029,CST-1368DR,8460,11834,15442,0.045,551
2019-08-01T01:50:12,42.805,6.029,CST-1368DR,8461,11834,15440,0.045,551
2019-08-01T01:53:14,42.805,6.029,CST-1368DR,8461,11834,15440,0.045,551
2019-08-01T01:56:16,42.805,6.029,CST-1368DR,8460,11832,15440,0.045,551
2019-08-01T01:59:17,42.805,6.029,CST-1368DR,8460,11829,15435,0.047,551
2019-08-01T02:02:19,42.805,6.029,CST-1368DR,8460,11835,15443,0.045,551
2019-08-01T02:05:21,42.805,6.029,CST-1368DR,8460,11835,15443,0.045,551
2019-08-01T02:08:23,42.805,6.029,CST-1368DR,8460,11827,15432,0.047,551
2019-08-01T02:11:24,42.805,6.029,CST-1368DR,8460,11834,15442,0.045,551
2019-08-01T02:14:26,42.805,6.029,CST-1368DR,8460,11834,15442,0.045,550
2019-08-01T02:17:28,42.805,6.029,CST-1368DR,8460,11833,15441,0.045,551
2019-08-01T02:20:30,42.805,6.029,CST-1368DR,8460,11834,15442,0.045,551
2019-08-01T02:23:32,42.805,6.029,CST-1368DR,8460,11835,15443,0.045,551
2019-08-01T02:26:33,42.805,6.029,CST-1368DR,8460,11833,15441,0.045,551
2019-08-01T02:29:35,42.805,6.029,CST-1368DR,8460,11833,15440,0.045,551
2019-08-01T02:32:37,42.805,6.029,CST-1368DR,8460,11835,15443,0.045,551
2019-08-01T02:35:39,42.805,6.029,CST-1368DR,8460,11825,15430,0.048,551
2019-08-01T02:38:40,42.805,6.029,CST-1368DR,8460,11834,15442,0.045,551
2019-08-01T02:41:42,42.805,6.029,CST-1368DR,8460,11834,15441,0.045,551
2019-08-01T02:44:44,42.805,6.029,CST-1368DR,8460,11834,15442,0.045,550
2019-08-01T02:47:45,42.805,6.029,CST-1368DR,8460,11832,15440,0.045,550
2019-08-01T02:50:47,42.805,6.029,CST-1368DR,8460,11835,15443,0.045,550
2019-08-01T02:53:49,42.805,6.029,CST-1368DR,8460,11823,15427,0.049,551
2019-08-01T02:56:51,42.805,6.029,CST-1368DR,8460,11832,15440,0.045,551
2019-08-01T02:59:53,42.805,6.029,CST-1368DR,8460,11835,15443,0.045,551
2019-08-01T03:02:54,42.805,6.029,CST-1368DR,8460,11834,15442,0.045,551
2019-08-01T03:05:56,42.805,6.029,CST-1368DR,8460,11830,15437,0.046,551
2019-08-01T03:08:58,42.805,6.029,CST-1368DR,8460,11832,15439,0.046,551
2019-08-01T03:12:00,42.805,6.029,CST-1368DR,8460,11832,15440,0.045,551
2019-08-01T03:15:02,42.805,6.029,CST-1368DR,8460,11821,15425,0.049,551
2019-08-01T03:18:03,42.805,6.029,CST-1368DR,8460,11832,15439,0.046,551
2019-08-01T03:21:05,42.805,6.029,CST-1368DR,8460,11833,15441,0.045,551
2019-08-01T03:24:07,42.805,6.029,CST-1368DR,8460,11833,15441,0.045,551
2019-08-01T03:27:09,42.805,6.029,CST-1368DR,8460,11833,15440,0.045,551
2019-08-01T03:30:10,42.805,6.029,CST-1368DR,8460,11833,15441,0.045,550
2019-08-01T03:33:12,42.805,6.029,CST-1368DR,8460,11832,15439,0.046,550
2019-08-01T03:36:14,42.805,6.029,CST-1368DR,8460,11833,15440,0.045,551
2019-08-01T03:39:16,42.805,6.029,CST-1368DR,8460,11834,15441,0.045,551
2019-08-01T03:42:17,42.805,6.029,CST-1368DR,8460,11832,15439,0.046,551
2019-08-01T03:45:19,42.805,6.029,CST-1368DR,8460,11834,15441,0.045,551
2019-08-01T03:48:21,42.805,6.029,CST-1368DR,8460,11833,15441,0.045,551
2019-08-01T03:51:23,42.805,6.029,CST-1368DR,8460,11830,15436,0.046,550
2019-08-01T03:54:25,42.805,6.029,CST-1368DR,8460,11832,15440,0.045,551
2019-08-01T03:57:27,42.805,6.029,CST-1368DR,8460,11830,15436,0.046,551
2019-08-01T04:00:29,42.805,6.029,CST-1368DR,8460,11833,15441,0.045,551
2019-08-01T04:03:31,42.805,6.029,CST-1368DR,8460,11832,15439,0.046,551
2019-08-01T04:06:33,42.805,6.029,CST-1368DR,8459,11832,15441,0.045,551
2019-08-01T04:09:34,42.805,6.029,CST-1368DR,8459,11834,15443,0.045,551
2019-08-01T04:12:36,42.805,6.029,CST-1368DR,8459,11833,15443,0.045,551
2019-08-01T04:15:38,42.805,6.029,CST-1368DR,8459,11830,15439,0.046,551
2019-08-01T04:18:40,42.805,6.029,CST-1368DR,8459,11833,15442,0.045,551
2019-08-01T04:21:42,42.805,6.029,CST-1368DR,8459,11831,15439,0.046,551
2019-08-01T04:24:44,42.805,6.029,CST-1368DR,8459,11832,15441,0.045,551
2019-08-01T04:27:45,42.805,6.029,CST-1368DR,8459,11831,15439,0.046,551
2019-08-01T04:30:47,42.805,6.029,CST-1368DR,8459,11832,15441,0.045,551
2019-08-01T04:33:49,42.805,6.029,CST-1368DR,8459,11832,15440,0.045,551
2019-08-01T04:36:51,42.805,6.029,CST-1368DR,8459,11833,15442,0.045,551
2019-08-01T04:39:53,42.805,6.029,CST-1368DR,8459,11831,15440,0.045,551
2019-08-01T04:42:54,42.805,6.029,CST-1368DR,8459,11831,15440,0.045,551
2019-08-01T04:45:56,42.805,6.029,CST-1368DR,8459,11832,15441,0.045,550
2019-08-01T04:48:58,42.805,6.029,CST-1368DR,8459,11827,15434,0.047,551
2019-08-01T04:52:00,42.805,6.029,CST-1368DR,8459,11830,15439,0.046,550
2019-08-01T04:55:01,42.805,6.029,CST-1368DR,8459,11832,15440,0.045,551
2019-08-01T04:58:03,42.805,6.029,CST-1368DR,8459,11830,15438,0.046,551
2019-08-01T05:01:05,42.805,6.029,CST-1368DR,8459,11832,15441,0.045,551
2019-08-01T05:04:07,42.805,6.029,CST-1368DR,8459,11829,15436,0.046,551
2019-08-01T05:07:09,42.805,6.029,CST-1368DR,8459,11830,15438,0.046,551
2019-08-01T05:10:11,42.805,6.029,CST-1368DR,8459,11831,15439,0.046,551
2019-08-01T05:13:13,42.805,6.029,CST-1368DR,8459,11830,15438,0.046,551
2019-08-01T05:16:14,42.805,6.029,CST-1368DR,8459,11832,15441,0.045,551
2019-08-01T05:19:16,42.805,6.029,CST-1368DR,8459,11831,15440,0.045,551
2019-08-01T05:22:18,42.805,6.029,CST-1368DR,8459,11826,15433,0.047,551
2019-08-01T05:25:20,42.805,6.029,CST-1368DR,8459,11829,15437,0.046,551
2019-08-01T05:28:22,42.805,6.029,CST-1368DR,8459,11830,15438,0.046,550
2019-08-01T05:31:24,42.805,6.029,CST-1368DR,8459,11831,15439,0.046,551
2019-08-01T05:34:25,42.805,6.029,CST-1368DR,8459,11831,15439,0.046,551
2019-08-01T05:37:27,42.805,6.029,CST-1368DR,8458,11827,15436,0.046,551
2019-08-01T05:40:29,42.805,6.029,CST-1368DR,8459,11828,15435,0.047,551
2019-08-01T05:43:31,42.805,6.029,CST-1368DR,8459,11831,15439,0.046,551
2019-08-01T05:46:33,42.805,6.029,CST-1368DR,8458,11827,15436,0.046,551
2019-08-01T05:49:34,42.805,6.029,CST-1368DR,8459,11829,15436,0.046,551
2019-08-01T05:52:36,42.805,6.029,CST-1368DR,8459,11831,15439,0.046,550
2019-08-01T05:55:38,42.805,6.029,CST-1368DR,8458,11830,15440,0.045,551
2019-08-01T05:58:40,42.805,6.029,CST-1368DR,8459,11831,15440,0.045,551
2019-08-01T06:01:42,42.805,6.029,CST-1368DR,8459,11831,15439,0.046,551
2019-08-01T06:04:44,42.805,6.029,CST-1368DR,8458,11829,15439,0.046,551
2019-08-01T06:07:45,42.805,6.029,CST-1368DR,8459,11832,15440,0.045,551
2019-08-01T06:10:47,42.805,6.029,CST-1368DR,8458,11831,15442,0.045,551
2019-08-01T06:13:49,42.805,6.029,CST-1368DR,8458,11828,15437,0.046,551
2019-08-01T06:16:51,42.805,6.029,CST-1368DR,8458,11831,15442,0.045,551
2019-08-01T06:19:53,42.805,6.029,CST-1368DR,8458,11830,15440,0.045,551
2019-08-01T06:22:55,42.805,6.029,CST-1368DR,8458,11828,15438,0.046,551
2019-08-01T06:25:57,42.805,6.029,CST-1368DR,8458,11828,15437,0.046,551
2019-08-01T06:28:59,42.805,6.029,CST-1368DR,8458,11825,15433,0.047,551
2019-08-01T06:32:01,42.805,6.029,CST-1368DR,8458,11828,15437,0.046,551
2019-08-01T06:35:02,42.805,6.029,CST-1368DR,8458,11831,15441,0.045,551
2019-08-01T06:38:04,42.805,6.029,CST-1368DR,8458,11827,15436,0.046,551
2019-08-01T06:41:06,42.805,6.029,CST-1368DR,8458,11827,15436,0.046,551
2019-08-01T06:44:08,42.805,6.029,CST-1368DR,8458,11829,15439,0.046,551
2019-08-01T06:47:10,42.805,6.029,CST-1368DR,8458,11827,15436,0.046,551
2019-08-01T06:50:12,42.805,6.029,CST-1368DR,8458,11824,15433,0.047,551
2019-08-01T06:53:13,42.805,6.029,CST-1368DR,8458,11829,15439,0.046,551
2019-08-01T06:56:15,42.805,6.029,CST-1368DR,8458,11828,15437,0.046,551
2019-08-01T06:59:17,42.805,6.029,CST-1368DR,8458,11830,15440,0.045,550
2019-08-01T07:02:19,42.805,6.029,CST-1368DR,8458,11830,15439,0.046,551
2019-08-01T07:05:21,42.805,6.029,CST-1368DR,8458,11828,15437,0.046,551
2019-08-01T07:08:23,42.805,6.029,CST-1368DR,8458,11826,15434,0.047,551
2019-08-01T07:11:25,42.805,6.029,CST-1368DR,8458,11829,15438,0.046,551
2019-08-01T07:14:26,42.805,6.029,CST-1368DR,8458,11828,15437,0.046,551
2019-08-01T07:17:28,42.805,6.029,CST-1368DR,8458,11828,15437,0.046,551
2019-08-01T07:20:30,42.805,6.029,CST-1368DR,8458,11828,15438,0.046,551
2019-08-01T07:23:32,42.805,6.029,CST-1368DR,8458,11829,15439,0.046,551
2019-08-01T07:26:34,42.805,6.029,CST-1368DR,8458,11828,15437,0.046,551
2019-08-01T07:29:36,42.805,6.029,CST-1368DR,8458,11829,15439,0.046,551
2019-08-01T07:32:37,42.805,6.029,CST-1368DR,8458,11824,15433,0.047,551
2019-08-01T07:35:39,42.805,6.029,CST-1368DR,8458,11828,15438,0.046,550
2019-08-01T07:38:41,42.805,6.029,CST-1368DR,8458,11822,15429,0.048,551
2019-08-01T07:41:43,42.805,6.029,CST-1368DR,8458,11827,15436,0.046,551
2019-08-01T07:44:45,42.805,6.029,CST-1368DR,8458,11826,15435,0.047,551
2019-08-01T07:47:46,42.805,6.029,CST-1368DR,8458,11828,15438,0.046,551
2019-08-01T07:50:48,42.805,6.029,CST-1368DR,8457,11828,15439,0.046,550
2019-08-01T07:53:50,42.805,6.029,CST-1368DR,8458,11829,15439,0.046,551
2019-08-01T07:56:52,42.805,6.029,CST-1368DR,8458,11828,15437,0.046,551
2019-08-01T07:59:53,42.805,6.029,CST-1368DR,8457,11827,15438,0.046,550
2019-08-01T08:02:55,42.805,6.029,CST-1368DR,8457,11826,15436,0.046,551
2019-08-01T08:05:57,42.805,6.029,CST-1368DR,8458,11829,15439,0.046,551
2019-08-01T08:08:59,42.805,6.029,CST-1368DR,8457,11827,15438,0.046,551
2019-08-01T08:12:01,42.805,6.029,CST-1368DR,8457,11827,15438,0.046,551
2019-08-01T08:15:02,42.805,6.029,CST-1368DR,8457,11828,15439,0.046,551
2019-08-01T08:18:04,42.805,6.029,CST-1368DR,8457,11827,15438,0.046,551
2019-08-01T08:21:06,42.805,6.029,CST-1368DR,8457,11827,15437,0.046,551
2019-08-01T08:24:08,42.805,6.029,CST-1368DR,8457,11828,15439,0.046,551
2019-08-01T08:27:10,42.805,6.029,CST-1368DR,8457,11826,15436,0.046,551
2019-08-01T08:30:11,42.805,6.029,CST-1368DR,8457,11827,15437,0.046,551
2019-08-01T08:33:13,42.805,6.029,CST-1368DR,8457,11825,15435,0.047,551
2019-08-01T08:36:15,42.805,6.029,CST-1368DR,8457,11824,15434,0.047,551
2019-08-01T08:39:17,42.805,6.029,CST-1368DR,8457,11826,15436,0.046,551
2019-08-01T08:42:19,42.805,6.029,CST-1368DR,8457,11829,15441,0.045,551
2019-08-01T08:45:21,42.805,6.029,CST-1368DR,8457,11822,15431,0.048,551
2019-08-01T08:48:22,42.805,6.029,CST-1368DR,8457,11818,15426,0.049,551
2019-08-01T08:51:24,42.805,6.029,CST-1368DR,8457,11825,15435,0.047,551
2019-08-01T08:54:26,42.805,6.029,CST-1368DR,8457,11826,15437,0.046,551
2019-08-01T08:57:28,42.805,6.029,CST-1368DR,8457,11828,15439,0.046,551
2019-08-01T09:00:30,42.805,6.029,CST-1368DR,8457,11826,15437,0.046,550
2019-08-01T09:03:32,42.805,6.029,CST-1368DR,8457,11827,15437,0.046,551
2019-08-01T09:06:34,42.805,6.029,CST-1368DR,8457,11827,15437,0.046,551
2019-08-01T09:09:35,42.805,6.029,CST-1368DR,8457,11825,15435,0.047,551
2019-08-01T09:12:37,42.805,6.029,CST-1368DR,8457,11822,15432,0.047,551
2019-08-01T09:15:39,42.805,6.029,CST-1368DR,8457,11827,15437,0.046,551
2019-08-01T09:18:41,42.805,6.029,CST-1368DR,8457,11828,15439,0.046,551
2019-08-01T09:21:43,42.805,6.029,CST-1368DR,8457,11827,15438,0.046,550
2019-08-01T09:24:45,42.805,6.029,CST-1368DR,8457,11827,15438,0.046,551
2019-08-01T09:27:46,42.805,6.029,CST-1368DR,8457,11826,15436,0.046,551
2019-08-01T09:30:48,42.805,6.029,CST-1368DR,8457,11806,15410,0.053,551
2019-08-01T09:33:50,42.805,6.029,CST-1368DR,8457,11825,15435,0.047,551
2019-08-01T09:36:52,42.805,6.029,CST-1368DR,8457,11828,15439,0.046,551
2019-08-01T09:39:54,42.805,6.029,CST-1368DR,8457,11823,15432,0.047,551
2019-08-01T09:42:56,42.805,6.029,CST-1368DR,8457,11822,15431,0.048,551
2019-08-01T09:45:57,42.805,6.029,CST-1368DR,8457,11822,15431,0.048,551
2019-08-01T09:48:59,42.805,6.029,CST-1368DR,8457,11825,15435,0.047,551
2019-08-01T09:52:01,42.805,6.029,CST-1368DR,8457,11826,15436,0.046,551
2019-08-01T09:55:02,42.805,6.029,CST-1368DR,8456,11827,15440,0.045,551
2019-08-01T09:58:04,42.805,6.029,CST-1368DR,8456,11825,15437,0.046,551
2019-08-01T10:01:06,42.805,6.029,CST-1368DR,8456,11826,15438,0.046,551
2019-08-01T10:04:07,42.805,6.029,CST-1368DR,8456,11826,15438,0.046,551
2019-08-01T10:07:09,42.805,6.029,CST-1368DR,8456,11821,15432,0.047,551
2019-08-01T10:10:11,42.805,6.029,CST-1368DR,8456,11823,15434,0.047,550
2019-08-01T10:13:12,42.805,6.029,CST-1368DR,8456,11827,15439,0.046,551
2019-08-01T10:16:14,42.805,6.029,CST-1368DR,8456,11826,15438,0.046,551
2019-08-01T10:19:15,42.805,6.029,CST-1368DR,8456,11824,15435,0.047,551
2019-08-01T10:22:17,42.805,6.029,CST-1368DR,8456,11825,15437,0.046,551
2019-08-01T10:25:19,42.805,6.029,CST-1368DR,8456,11828,15440,0.045,551
2019-08-01T10:28:21,42.805,6.029,CST-1368DR,8456,11825,15437,0.046,551
2019-08-01T10:31:22,42.805,6.029,CST-1368DR,8456,11825,15437,0.046,551
2019-08-01T10:34:24,42.805,6.029,CST-1368DR,8456,11827,15439,0.046,551
2019-08-01T10:37:25,42.805,6.029,CST-1368DR,8456,11824,15435,0.047,551
2019-08-01T10:40:27,42.805,6.029,CST-1368DR,8456,11824,15436,0.046,551
2019-08-01T10:43:29,42.805,6.029,CST-1368DR,8456,11824,15435,0.047,551
2019-08-01T10:46:30,42.805,6.029,CST-1368DR,8456,11825,15437,0.046,551
2019-08-01T10:49:32,42.805,6.029,CST-1368DR,8456,11823,15434,0.047,551
2019-08-01T10:52:34,42.805,6.029,CST-1368DR,8456,11823,15435,0.047,551
2019-08-01T10:55:35,42.805,6.029,CST-1368DR,8456,11825,15437,0.046,550
2019-08-01T10:58:37,42.805,6.029,CST-1368DR,8456,11827,15440,0.045,550
2019-08-01T11:01:39,42.805,6.029,CST-1368DR,8456,11825,15436,0.046,551
2019-08-01T11:04:40,42.805,6.029,CST-1368DR,8456,11826,15438,0.046,551
2019-08-01T11:07:42,42.805,6.029,CST-1368DR,8456,11826,15438,0.046,551
2019-08-01T11:10:44,42.805,6.029,CST-1368DR,8456,11822,15433,0.047,550
2019-08-01T11:13:45,42.805,6.029,CST-1368DR,8456,11824,15435,0.047,550
2019-08-01T11:16:47,42.805,6.029,CST-1368DR,8456,11826,15438,0.046,551
2019-08-01T11:19:49,42.805,6.029,CST-1368DR,8456,11823,15435,0.047,551
2019-08-01T11:22:51,42.805,6.029,CST-1368DR,8456,11824,15436,0.046,551
2019-08-01T11:25:52,42.805,6.029,CST-1368DR,8456,11824,15435,0.047,551
2019-08-01T11:28:54,42.805,6.029,CST-1368DR,8456,11825,15437,0.046,550
2019-08-01T11:31:55,42.805,6.029,CST-1368DR,8456,11826,15438,0.046,551
2019-08-01T11:34:57,42.805,6.029,CST-1368DR,8456,11825,15437,0.046,551
2019-08-01T11:37:59,42.805,6.029,CST-1368DR,8456,11819,15429,0.048,551
2019-08-01T11:41:00,42.805,6.029,CST-1368DR,8456,11826,15438,0.046,551
2019-08-01T11:44:02,42.805,6.029,CST-1368DR,8456,11824,15436,0.046,551
2019-08-01T11:47:04,42.805,6.029,CST-1368DR,8456,11825,15436,0.046,551
2019-08-01T11:50:05,42.805,6.029,CST-1368DR,8456,11826,15438,0.046,551
2019-08-01T11:53:07,42.805,6.029,CST-1368DR,8456,11825,15436,0.046,551
2019-08-01T11:56:09,42.805,6.029,CST-1368DR,8456,11824,15436,0.046,551
2019-08-01T11:59:10,42.805,6.029,CST-1368DR,8455,11824,15437,0.046,551
2019-08-01T12:02:12,42.805,6.029,CST-1368DR,8455,11795,15399,0.056,550
2019-08-01T12:05:13,42.805,6.029,CST-1368DR,8455,11818,15429,0.048,551
2019-08-01T12:08:15,42.805,6.029,CST-1368DR,8455,11823,15435,0.047,551
2019-08-01T12:11:17,42.805,6.029,CST-1368DR,8455,11820,15431,0.048,551
2019-08-01T12:14:18,42.805,6.029,CST-1368DR,8455,11825,15439,0.046,550
2019-08-01T12:17:20,42.805,6.029,CST-1368DR,8455,11822,15434,0.047,551
2019-08-01T12:20:22,42.805,6.029,CST-1368DR,8455,11821,15433,0.047,551
2019-08-01T12:23:23,42.805,6.029,CST-1368DR,8455,11816,15426,0.049,551
2019-08-01T12:26:25,42.805,6.029,CST-1368DR,8455,11822,15434,0.047,551
2019-08-01T12:29:27,42.805,6.029,CST-1368DR,8455,11819,15431,0.048,550
2019-08-01T12:32:28,42.805,6.029,CST-1368DR,8455,11823,15436,0.046,551
2019-08-01T12:35:30,42.805,6.029,CST-1368DR,8455,11824,15437,0.046,551
2019-08-01T12:38:31,42.805,6.029,CST-1368DR,8455,11821,15433,0.047,551
2019-08-01T12:41:33,42.805,6.029,CST-1368DR,8455,11823,15436,0.046,551
2019-08-01T12:44:35,42.805,6.029,CST-1368DR,8455,11818,15430,0.048,551
2019-08-01T12:47:36,42.805,6.029,CST-1368DR,8455,11823,15436,0.046,551
2019-08-01T12:50:38,42.805,6.029,CST-1368DR,8455,11823,15436,0.046,551
2019-08-01T12:53:40,42.805,6.029,CST-1368DR,8455,11822,15435,0.047,551
2019-08-01T12:56:41,42.805,6.029,CST-1368DR,8455,11824,15438,0.046,551
2019-08-01T12:59:43,42.805,6.029,CST-1368DR,8455,11823,15436,0.046,551
2019-08-01T13:02:45,42.805,6.029,CST-1368DR,8455,11822,15435,0.047,551
2019-08-01T13:05:46,42.805,6.029,CST-1368DR,8455,11823,15436,0.046,551
2019-08-01T13:08:48,42.805,6.029,CST-1368DR,8455,11816,15426,0.049,551
2019-08-01T13:11:50,42.805,6.029,CST-1368DR,8455,11822,15435,0.047,551
2019-08-01T13:14:51,42.805,6.029,CST-1368DR,8455,11823,15436,0.046,551
2019-08-01T13:17:53,42.805,6.029,CST-1368DR,8455,11821,15434,0.047,550
2019-08-01T13:20:55,42.805,6.029,CST-1368DR,8455,11823,15435,0.047,551
2019-08-01T13:23:57,42.805,6.029,CST-1368DR,8455,11824,15437,0.046,551
2019-08-01T13:26:58,42.805,6.029,CST-1368DR,8455,11823,15435,0.047,551
2019-08-01T13:30:00,42.805,6.029,CST-1368DR,8455,11824,15437,0.046,551
2019-08-01T13:33:02,42.805,6.029,CST-1368DR,8455,11824,15437,0.046,551
2019-08-01T13:36:03,42.805,6.029,CST-1368DR,8455,11823,15436,0.046,551
2019-08-01T13:39:05,42.805,6.029,CST-1368DR,8455,11822,15434,0.047,551
2019-08-01T13:42:07,42.805,6.029,CST-1368DR,8453,11651,15215,0.104,551
2019-08-01T13:45:08,42.805,6.029,CST-1368DR,8455,11822,15434,0.047,550
2019-08-01T13:48:10,42.805,6.029,CST-1368DR,8455,11823,15436,0.046,551
2019-08-01T13:51:12,42.805,6.029,CST-1368DR,8455,11822,15434,0.047,551
2019-08-01T13:54:13,42.805,6.029,CST-1368DR,8455,11821,15433,0.047,551
2019-08-01T13:57:15,42.805,6.029,CST-1368DR,8455,11820,15432,0.047,551
2019-08-01T14:00:17,42.805,6.029,CST-1368DR,8455,11822,15434,0.047,551
2019-08-01T14:03:18,42.805,6.029,CST-1368DR,8455,11819,15430,0.048,550
2019-08-01T14:06:20,42.805,6.029,CST-1368DR,8455,11823,15435,0.047,551
2019-08-01T14:09:22,42.805,6.029,CST-1368DR,8455,11821,15433,0.047,551
2019-08-01T14:12:23,42.805,6.029,CST-1368DR,8455,11820,15432,0.047,551
2019-08-01T14:15:25,42.805,6.029,CST-1368DR,8455,11823,15436,0.046,551
2019-08-01T14:18:26,42.805,6.029,CST-1368DR,8455,11823,15436,0.046,551
2019-08-01T14:21:28,42.805,6.029,CST-1368DR,8455,11822,15434,0.047,551
2019-08-01T14:24:30,42.805,6.029,CST-1368DR,8455,11822,15435,0.047,551
2019-08-01T14:27:32,42.805,6.029,CST-1368DR,8455,11823,15436,0.046,551
2019-08-01T14:30:34,42.805,6.029,CST-1368DR,8455,11822,15435,0.047,551
2019-08-01T14:33:35,42.805,6.029,CST-1368DR,8455,11822,15434,0.047,551
2019-08-01T14:36:37,42.805,6.029,CST-1368DR,8454,11823,15438,0.046,551
2019-08-01T14:39:39,42.805,6.029,CST-1368DR,8454,11819,15432,0.047,550
2019-08-01T14:42:40,42.805,6.029,CST-1368DR,8454,11814,15425,0.049,551
2019-08-01T14:45:42,42.805,6.029,CST-1368DR,8454,11813,15425,0.049,551
2019-08-01T14:48:44,42.805,6.029,CST-1368DR,8454,11821,15434,0.047,551
2019-08-01T14:51:45,42.805,6.029,CST-1368DR,8454,11819,15432,0.047,551
2019-08-01T14:54:47,42.805,6.029,CST-1368DR,8454,11820,15434,0.047,551
2019-08-01T14:57:49,42.805,6.029,CST-1368DR,8454,11819,15433,0.047,551
2019-08-01T15:00:50,42.805,6.029,CST-1368DR,8454,11821,15435,0.047,551
2019-08-01T15:03:52,42.805,6.029,CST-1368DR,8454,11821,15435,0.047,551
2019-08-01T15:06:53,42.805,6.029,CST-1368DR,8454,11820,15433,0.047,551
2019-08-01T15:09:55,42.805,6.029,CST-1368DR,8454,11811,15421,0.050,551
2019-08-01T15:12:57,42.805,6.029,CST-1368DR,8454,11813,15425,0.049,551
2019-08-01T15:15:58,42.805,6.029,CST-1368DR,8454,11818,15430,0.048,551
2019-08-01T15:19:00,42.805,6.029,CST-1368DR,8454,11819,15432,0.047,550
2019-08-01T15:22:02,42.805,6.029,CST-1368DR,8454,11820,15434,0.047,551
2019-08-01T15:25:03,42.805,6.029,CST-1368DR,8454,11820,15433,0.047,551
2019-08-01T15:28:05,42.805,6.029,CST-1368DR,8454,11816,15428,0.048,551
2019-08-01T15:31:07,42.805,6.029,CST-1368DR,8454,11818,15431,0.048,550
2019-08-01T15:34:08,42.805,6.029,CST-1368DR,8454,11817,15430,0.048,551
2019-08-01T15:37:10,42.805,6.029,CST-1368DR,8454,11819,15432,0.047,550
2019-08-01T15:40:12,42.805,6.029,CST-1368DR,8454,11818,15431,0.048,551
2019-08-01T15:43:13,42.805,6.029,CST-1368DR,8454,11818,15431,0.048,551
2019-08-01T15:46:15,42.805,6.029,CST-1368DR,8454,11819,15433,0.047,551
2019-08-01T15:49:17,42.805,6.029,CST-1368DR,8454,11818,15431,0.048,551
2019-08-01T15:52:18,42.805,6.029,CST-1368DR,8454,11817,15430,0.048,551
2019-08-01T15:55:20,42.805,6.029,CST-1368DR,8454,11814,15425,0.049,551
2019-08-01T15:58:22,42.805,6.029,CST-1368DR,8454,11815,15427,0.049,551
2019-08-01T16:01:23,42.805,6.029,CST-1368DR,8454,11816,15429,0.048,551
2019-08-01T16:04:25,42.805,6.029,CST-1368DR,8454,11817,15429,0.048,551
2019-08-01T16:07:27,42.805,6.029,CST-1368DR,8454,11819,15432,0.047,551
2019-08-01T16:10:28,42.805,6.029,CST-1368DR,8454,11820,15433,0.047,551
2019-08-01T16:13:30,42.805,6.029,CST-1368DR,8454,11819,15432,0.047,551
2019-08-01T16:16:32,42.805,6.029,CST-1368DR,8453,11818,15433,0.047,550
2019-08-01T16:19:33,42.805,6.029,CST-1368DR,8453,11816,15431,0.048,551
2019-08-01T16:22:35,42.805,6.029,CST-1368DR,8453,11818,15433,0.047,551
2019-08-01T16:25:37,42.805,6.029,CST-1368DR,8453,11818,15433,0.047,551
2019-08-01T16:28:38,42.805,6.029,CST-1368DR,8453,11818,15433,0.047,551
2019-08-01T16:31:40,42.805,6.029,CST-1368DR,8453,11814,15427,0.049,551
2019-08-01T16:34:42,42.805,6.029,CST-1368DR,8453,11814,15427,0.049,551
2019-08-01T16:37:43,42.805,6.029,CST-1368DR,8453,11817,15432,0.047,551